This is the latest recevied weather packets stored in our database for station/object W4GAP. If no packets are shown the sender has not sent any weather packets the latest 10 day(s).
| Time | Temp. | Humidity | Pressure | Rain* | Wind** | Luminosity | Snow |
|---|---|---|---|---|---|---|---|
| 1777679279 | 16.67° C | 65% | 1009.2 hPa | 0 mm | - | 2 W/m² | - |
| 1777678977 | 17.22° C | 66% | 1009.3 hPa | 0 mm | - | 3 W/m² | - |
| 1777678675 | 17.22° C | 64% | 1009.2 hPa | 0 mm | - | 3 W/m² | - |
| 1777678373 | 17.22° C | 64% | 1009.4 hPa | 0 mm | - | 3 W/m² | - |
| 1777678068 | 17.22° C | 64% | 1009.4 hPa | 0 mm | - | 4 W/m² | - |
| 1777677765 | 17.22° C | 64% | 1009.4 hPa | 0 mm | - | 5 W/m² | - |
| 1777677463 | 17.22° C | 65% | 1009.3 hPa | 0 mm | - | 5 W/m² | - |
| 1777677161 | 17.22° C | 63% | 1009.3 hPa | 0 mm | - | 6 W/m² | - |
| 1777676859 | 17.22° C | 63% | 1009.4 hPa | 0 mm | - | 7 W/m² | - |
| 1777676558 | 17.22° C | 62% | 1009.5 hPa | 0 mm | - | 8 W/m² | - |
| 1777676255 | 17.78° C | 62% | 1009.4 hPa | 0 mm | - | 10 W/m² | - |
| 1777675952 | 17.78° C | 62% | 1009.4 hPa | 0 mm | - | 12 W/m² | - |
| 1777675648 | 17.78° C | 60% | 1009.1 hPa | 0 mm | - | 15 W/m² | - |
| 1777675346 | 17.78° C | 61% | 1009 hPa | 0 mm | - | 18 W/m² | - |
| 1777675041 | 17.78° C | 61% | 1008.7 hPa | 0 mm | - | 20 W/m² | - |
| 1777674738 | 17.78° C | 61% | 1008.8 hPa | 0 mm | - | 20 W/m² | - |
| 1777674435 | 17.78° C | 58% | 1009 hPa | 0 mm | - | 26 W/m² | - |
| 1777674133 | 17.78° C | 62% | 1008.9 hPa | 0 mm | - | 27 W/m² | - |
| 1777673828 | 17.78° C | 58% | 1008.7 hPa | 0 mm | - | 32 W/m² | - |
| 1777673525 | 17.78° C | 60% | 1008.7 hPa | 0 mm | - | 34 W/m² | - |
| 1777673223 | 17.78° C | 59% | 1009.1 hPa | 0 mm | - | 31 W/m² | - |
| 1777672920 | 17.78° C | 59% | 1009.2 hPa | 0 mm | - | 35 W/m² | - |
| 1777672617 | 17.78° C | 59% | 1009.1 hPa | 0 mm | - | 35 W/m² | - |
| 1777672312 | 17.78° C | 59% | 1009.3 hPa | 0 mm | - | 30 W/m² | - |
| 1777672007 | 18.33° C | 60% | 1009.3 hPa | 0 mm | - | 32 W/m² | - |
* Rain latest hour (hover to see other rain measurements)
** Current wind speed in m/s (hover to see current wind gust speed)